| time (UTC) | temp F | wind direction | speed knots | gust knots | rain 1hr in | rain 24hr in | rain mn in | humidity % | barometer mb |
| 20260506103444 | 80 | 122 | 4.3 | 7.8 | 0.00 | 0.00 | 0.00 | 100 | 1006.5 |
| 20260506102944 | 80 | 129 | 3.5 | 7.8 | 0.00 | 0.00 | 0.00 | 100 | 1006.5 |
| 20260506101944 | 80 | 121 | 3.5 | 7.8 | 0.00 | 0.00 | 0.00 | 100 | 1006.6 |
| 20260506101444 | 80 | 119 | 4.3 | 7.8 | 0.00 | 0.00 | 0.00 | 100 | 1006.6 |
| 20260506100945 | 80 | 126 | 4.3 | 7.0 | 0.00 | 0.00 | 0.00 | 100 | 1006.5 |
| 20260506095942 | 80 | 144 | 4.3 | 7.0 | 0.00 | 0.00 | 0.00 | 100 | 1006.5 |
| 20260506095442 | 80 | 118 | 4.3 | 7.8 | 0.00 | 0.00 | 0.00 | 100 | 1006.4 |
| 20260506094942 | 80 | 117 | 4.3 | 7.8 | 0.00 | 0.00 | 0.00 | 100 | 1006.4 |
| 20260506094442 | 80 | 126 | 4.3 | 7.8 | 0.00 | 0.00 | 0.00 | 100 | 1006.4 |
| 20260506093942 | 80 | 125 | 4.3 | 8.7 | 0.00 | 0.00 | 0.00 | 100 | 1006.3 |
| 20260506093442 | 80 | 133 | 5.2 | 8.7 | 0.00 | 0.00 | 0.00 | 100 | 1006.1 |
| 20260506092942 | 80 | 119 | 4.3 | 7.8 | 0.00 | 0.00 | 0.00 | 100 | 1006.1 |
| 20260506092442 | 80 | 119 | 5.2 | 8.7 | 0.00 | 0.00 | 0.00 | 100 | 1006.2 |
| 20260506091942 | 80 | 126 | 6.1 | 8.7 | 0.00 | 0.00 | 0.00 | 100 | 1006.2 |
| 20260506090939 | 80 | 132 | 6.1 | 10.4 | 0.00 | 0.00 | 0.00 | 100 | 1006.2 |
| 20260506090440 | 80 | 111 | 6.1 | 10.4 | 0.00 | 0.00 | 0.00 | 100 | 1006.1 |
| 20260506085940 | 80 | 126 | 7.0 | 10.4 | 0.00 | 0.00 | 0.00 | 100 | 1006.1 |
| 20260506085440 | 80 | 124 | 7.0 | 12.2 | 0.00 | 0.00 | 0.00 | 100 | 1006.0 |
| 20260506084940 | 80 | 128 | 7.0 | 12.2 | 0.00 | 0.00 | 0.00 | 100 | 1006.1 |
| 20260506084439 | 80 | 148 | 7.0 | 9.6 | 0.00 | 0.00 | 0.00 | 100 | 1006.0 |
| 20260506083939 | 80 | 118 | 6.1 | 10.4 | 0.00 | 0.00 | 0.00 | 100 | 1006.1 |
| 20260506083440 | 80 | 142 | 6.1 | 10.4 | 0.00 | 0.00 | 0.00 | 100 | 1006.1 |
| 20260506082940 | 80 | 121 | 6.1 | 9.6 | 0.00 | 0.00 | 0.00 | 100 | 1006.1 |
| 20260506080936 | 80 | 109 | 7.0 | 11.3 | 0.00 | 0.00 | 0.00 | 100 | 1006.1 |
| 20260506080436 | 80 | 117 | 6.1 | 11.3 | 0.00 | 0.00 | 0.00 | 100 | 1006.2 |
| 20260506073436 | 80 | 128 | 6.1 | 13.0 | 0.00 | 0.00 | 0.00 | 100 | 1006.5 |
| 20260506072936 | 80 | 155 | 6.1 | 10.4 | 0.00 | 0.00 | 0.00 | 100 | 1006.6 |
| 20260506071934 | 80 | 161 | 5.2 | 9.6 | 0.00 | 0.00 | 0.00 | 100 | 1006.9 |
| 20260506071434 | 80 | 130 | 5.2 | 10.4 | 0.00 | 0.00 | 0.00 | 100 | 1006.9 |
| 20260506070934 | 80 | 146 | 5.2 | 11.3 | 0.00 | 0.00 | 0.00 | 100 | 1007.0 |
| 20260506070434 | 80 | 144 | 6.1 | 11.3 | 0.00 | 0.00 | 0.00 | 100 | 1006.9 |
| 20260506062434 | 80 | 160 | 7.0 | 13.0 | 0.00 | 0.00 | 0.00 | 100 | 1007.1 |
| 20260506061934 | 80 | 128 | 7.0 | 13.0 | 0.00 | 0.00 | 0.00 | 100 | 1007.2 |
| 20260506061432 | 80 | 131 | 7.0 | 13.0 | 0.00 | 0.00 | 0.00 | 100 | 1007.3 |
| 20260506060932 | 80 | 146 | 7.0 | 13.0 | 0.00 | 0.00 | 0.00 | 100 | 1007.2 |
| 20260506060433 | 80 | 137 | 7.0 | 11.3 | 0.00 | 0.00 | 0.00 | 100 | 1007.2 |
| 20260506050929 | 80 | 161 | 6.1 | 10.4 | 0.00 | 0.00 | 0.00 | 100 | 1007.1 |
| 20260506050427 | 80 | 152 | 7.8 | 13.0 | 0.00 | 0.00 | 0.00 | 100 | 1007.0 |
| 20260506044927 | 80 | 121 | 7.0 | 12.2 | 0.00 | 0.00 | 0.00 | 100 | 1007.2 |
| 20260506043427 | 80 | 132 | 7.8 | 11.3 | 0.00 | 0.00 | 0.00 | 100 | 1007.1 |
| 20260506042927 | 80 | 146 | 8.7 | 16.5 | 0.00 | 0.00 | 0.00 | 100 | 1007.2 |
| 20260506041926 | 81 | 138 | 7.8 | 12.2 | 0.00 | 0.00 | 0.00 | 100 | 1007.2 |
| 20260506040927 | 81 | 138 | 7.0 | 13.9 | 0.00 | 0.00 | 0.00 | 100 | 1007.2 |
| 20260506035927 | 81 | 148 | 7.8 | 13.0 | 0.00 | 0.00 | 0.00 | 100 | 1007.1 |
| 20260506035427 | 81 | 146 | 7.8 | 13.9 | 0.00 | 0.00 | 0.00 | 100 | 1007.2 |
| 20260506034926 | 81 | 147 | 7.0 | 13.9 | 0.00 | 0.00 | 0.00 | 100 | 1007.0 |
| 20260506034426 | 81 | 134 | 7.8 | 15.6 | 0.00 | 0.00 | 0.00 | 100 | 1007.0 |
| 20260506033927 | 81 | 150 | 8.7 | 15.6 | 0.00 | 0.00 | 0.00 | 100 | 1006.9 |
| 20260506033427 | 81 | 117 | 8.7 | 15.6 | 0.00 | 0.00 | 0.00 | 100 | 1006.9 |
| 20260506032926 | 81 | 113 | 7.8 | 15.6 | 0.00 | 0.00 | 0.00 | 100 | 1006.9 |
| 20260506032426 | 81 | 155 | 7.8 | 13.9 | 0.00 | 0.00 | 0.00 | 100 | 1006.7 |
| 20260506031427 | 80 | 130 | 7.0 | 13.0 | 0.00 | 0.00 | 0.00 | 100 | 1006.7 |
| 20260506030926 | 80 | 129 | 7.8 | 13.0 | 0.00 | 0.00 | 0.00 | 100 | 1006.6 |
| 20260506025926 | 80 | 150 | 8.7 | 13.9 | 0.00 | 0.00 | 0.00 | 100 | 1006.4 |
| 20260506025427 | 80 | 131 | 7.8 | 15.6 | 0.00 | 0.00 | 0.00 | 100 | 1006.4 |
| 20260506024926 | 80 | 140 | 7.8 | 15.6 | 0.00 | 0.00 | 0.00 | 100 | 1006.4 |
| 20260506024426 | 80 | 120 | 8.7 | 13.9 | 0.00 | 0.00 | 0.00 | 100 | 1006.3 |
| 20260506023927 | 80 | 119 | 9.6 | 16.5 | 0.00 | 0.00 | 0.00 | 100 | 1006.2 |
| 20260506022926 | 80 | 124 | 8.7 | 12.2 | 0.00 | 0.00 | 0.00 | 100 | 1006.1 |
| 20260506022426 | 81 | 123 | 8.7 | 13.9 | 0.00 | 0.00 | 0.00 | 100 | 1006.1 |
| 20260506021927 | 81 | 121 | 9.6 | 15.6 | 0.00 | 0.00 | 0.00 | 100 | 1006.0 |
| 20260506021427 | 81 | 144 | 9.6 | 15.6 | 0.00 | 0.00 | 0.00 | 100 | 1005.9 |
| 20260506020926 | 81 | 121 | 9.6 | 15.6 | 0.00 | 0.00 | 0.00 | 100 | 1005.9 |
| 20260506020427 | 81 | 133 | 8.7 | 15.6 | 0.00 | 0.00 | 0.00 | 100 | 1005.9 |
| 20260506015927 | 81 | 117 | 9.6 | 15.6 | 0.00 | 0.00 | 0.00 | 100 | 1005.9 |
| 20260506015428 | 81 | 134 | 9.6 | 13.9 | 0.00 | 0.00 | 0.00 | 100 | 1005.9 |
| 20260506014927 | 81 | 113 | 8.7 | 15.6 | 0.00 | 0.00 | 0.00 | 100 | 1005.9 |
| 20260506014428 | 81 | 126 | 8.7 | 15.6 | 0.00 | 0.00 | 0.00 | 100 | 1005.8 |
| 20260506013927 | 81 | 110 | 9.6 | 15.6 | 0.00 | 0.00 | 0.00 | 100 | 1005.5 |
| 20260506013428 | 81 | 113 | 9.6 | 13.9 | 0.00 | 0.00 | 0.00 | 100 | 1005.5 |
| 20260506012928 | 81 | 111 | 10.4 | 16.5 | 0.00 | 0.00 | 0.00 | 100 | 1005.4 |
| 20260506012427 | 81 | 119 | 11.3 | 18.2 | 0.00 | 0.00 | 0.00 | 100 | 1005.3 |
| 20260506011928 | 81 | 126 | 9.6 | 18.2 | 0.00 | 0.00 | 0.00 | 100 | 1005.3 |
| 20260506011428 | 81 | 118 | 9.6 | 15.6 | 0.00 | 0.00 | 0.00 | 100 | 1005.2 |
| 20260506010927 | 81 | 127 | 10.4 | 15.6 | 0.00 | 0.00 | 0.00 | 100 | 1005.1 |
| 20260506005928 | 81 | 108 | 9.6 | 17.4 | 0.00 | 0.00 | 0.00 | 100 | 1005.0 |
| 20260506005425 | 81 | 117 | 9.6 | 17.4 | 0.00 | 0.00 | 0.00 | 100 | 1005.0 |
| 20260506004924 | 81 | 153 | 10.4 | 16.5 | 0.00 | 0.00 | 0.00 | 100 | 1004.9 |
| 20260506004424 | 81 | 127 | 11.3 | 19.1 | 0.00 | 0.00 | 0.00 | 100 | 1004.9 |
| 20260506003925 | 81 | 128 | 11.3 | 19.1 | 0.00 | 0.00 | 0.00 | 100 | 1004.9 |
| 20260506003424 | 81 | 137 | 11.3 | 17.4 | 0.00 | 0.00 | 0.00 | 100 | 1004.8 |
| 20260506002925 | 82 | 114 | 10.4 | 17.4 | 0.00 | 0.00 | 0.00 | 100 | 1004.7 |
| 20260506002425 | 82 | 128 | 11.3 | 17.4 | 0.00 | 0.00 | 0.00 | 100 | 1004.8 |
| 20260506001424 | 82 | 123 | 11.3 | 18.2 | 0.00 | 0.00 | 0.00 | 100 | 1004.8 |
| 20260506000924 | 82 | 117 | 12.2 | 18.2 | 0.00 | 0.00 | 0.00 | 100 | 1004.8 |
| 20260505235923 | 82 | 132 | 12.2 | 20.0 | 0.00 | 0.00 | 0.00 | 100 | 1004.9 |
| 20260505235422 | 82 | 134 | 12.2 | 20.0 | 0.00 | 0.00 | 0.00 | 100 | 1004.8 |
| 20260505234423 | 83 | 128 | 13.0 | 20.0 | 0.00 | 0.00 | 0.00 | 100 | 1004.7 |
| 20260505233923 | 83 | 125 | 13.0 | 20.9 | 0.00 | 0.00 | 0.00 | 100 | 1004.7 |
| 20260505232923 | 83 | 128 | 11.3 | 19.1 | 0.00 | 0.00 | 0.00 | 100 | 1004.8 |
| 20260505232423 | 83 | 121 | 11.3 | 20.0 | 0.00 | 0.00 | 0.00 | 100 | 1005.0 |
| 20260505231922 | 83 | 121 | 11.3 | 20.0 | 0.00 | 0.00 | 0.00 | 100 | 1005.1 |
| 20260505230921 | 83 | 130 | 12.2 | 20.0 | 0.00 | 0.00 | 0.00 | 100 | 1005.1 |
| 20260505230421 | 83 | 132 | 11.3 | 18.2 | 0.00 | 0.00 | 0.00 | 100 | 1005.1 |
| 20260505225921 | 84 | 138 | 10.4 | 18.2 | 0.00 | 0.00 | 0.00 | 100 | 1005.2 |
| 20260505225420 | 84 | 131 | 10.4 | 17.4 | 0.00 | 0.00 | 0.00 | 100 | 1005.1 |
| 20260505224920 | 84 | 130 | 11.3 | 18.2 | 0.00 | 0.00 | 0.00 | 100 | 1005.2 |
| 20260505224421 | 84 | 134 | 11.3 | 19.1 | 0.00 | 0.00 | 0.00 | 100 | 1005.0 |
| 20260505223921 | 84 | 145 | 11.3 | 19.1 | 0.00 | 0.00 | 0.00 | 100 | 1005.1 |
| 20260505223421 | 84 | 132 | 10.4 | 18.2 | 0.00 | 0.00 | 0.00 | 100 | 1005.2 |
| 20260505222920 | 84 | 156 | 10.4 | 18.2 | 0.00 | 0.00 | 0.00 | 100 | 1005.2 |
| 20260505222419 | 84 | 130 | 10.4 | 18.2 | 0.00 | 0.00 | 0.00 | 100 | 1005.3 |
| 20260505221919 | 84 | 111 | 11.3 | 19.1 | 0.00 | 0.00 | 0.00 | 100 | 1005.2 |
| 20260505221419 | 84 | 128 | 11.3 | 19.1 | 0.00 | 0.00 | 0.00 | 100 | 1005.2 |
| 20260505220919 | 84 | 134 | 11.3 | 20.0 | 0.00 | 0.00 | 0.00 | 100 | 1005.2 |
| 20260505215919 | 84 | 161 | 12.2 | 22.6 | 0.00 | 0.00 | 0.00 | 100 | 1005.3 |
| 20260505215419 | 85 | 151 | 10.4 | 22.6 | 0.00 | 0.00 | 0.00 | 100 | 1005.3 |
| 20260505214419 | 85 | 119 | 11.3 | 20.0 | 0.00 | 0.00 | 0.00 | 100 | 1005.2 |
| 20260505213918 | 85 | 121 | 12.2 | 20.0 | 0.00 | 0.00 | 0.00 | 100 | 1005.3 |
| 20260505213417 | 85 | 137 | 11.3 | 19.1 | 0.00 | 0.00 | 0.00 | 100 | 1005.4 |
| 20260505212917 | 85 | 130 | 11.3 | 20.0 | 0.00 | 0.00 | 0.00 | 100 | 1005.6 |
| 20260505212417 | 84 | 154 | 11.3 | 21.7 | 0.00 | 0.00 | 0.00 | 100 | 1005.7 |
| 20260505211917 | 84 | 175 | 12.2 | 21.7 | 0.00 | 0.00 | 0.00 | 100 | 1005.8 |
| 20260505211417 | 84 | 146 | 11.3 | 20.0 | 0.00 | 0.00 | 0.00 | 100 | 1005.8 |
| 20260505210417 | 85 | 144 | 10.4 | 19.1 | 0.00 | 0.00 | 0.00 | 100 | 1006.0 |
| 20260505205917 | 84 | 173 | 10.4 | 18.2 | 0.00 | 0.00 | 0.00 | 100 | 1006.0 |
| 20260505204916 | 85 | 139 | 9.6 | 18.2 | 0.00 | 0.00 | 0.00 | 100 | 1006.4 |
| 20260505204416 | 85 | 131 | 10.4 | 19.1 | 0.00 | 0.00 | 0.00 | 100 | 1006.4 |
| 20260505203916 | 85 | 160 | 10.4 | 19.1 | 0.00 | 0.00 | 0.00 | 100 | 1006.3 |
| 20260505203415 | 85 | 139 | 9.6 | 17.4 | 0.00 | 0.00 | 0.00 | 100 | 1006.4 |
| 20260505202915 | 85 | 163 | 9.6 | 17.4 | 0.00 | 0.00 | 0.00 | 100 | 1006.4 |
| 20260505201915 | 85 | 142 | 10.4 | 19.1 | 0.00 | 0.00 | 0.00 | 100 | 1006.6 |
| 20260505200915 | 85 | 157 | 9.6 | 19.1 | 0.00 | 0.00 | 0.00 | 100 | 1006.6 |
| 20260505200415 | 85 | 134 | 9.6 | 19.1 | 0.00 | 0.00 | 0.00 | 100 | 1006.6 |
| 20260505195915 | 85 | 134 | 9.6 | 18.2 | 0.00 | 0.00 | 0.00 | 100 | 1006.7 |
| 20260505195413 | 85 | 166 | 10.4 | 18.2 | 0.00 | 0.00 | 0.00 | 100 | 1006.8 |
| 20260505194913 | 85 | 137 | 10.4 | 21.7 | 0.00 | 0.00 | 0.00 | 100 | 1006.8 |
| 20260505194413 | 85 | 133 | 12.2 | 21.7 | 0.00 | 0.00 | 0.00 | 100 | 1006.9 |
| 20260505193912 | 86 | 179 | 13.0 | 21.7 | 0.00 | 0.00 | 0.00 | 100 | 1007.0 |
| 20260505193413 | 86 | 148 | 12.2 | 21.7 | 0.00 | 0.00 | 0.00 | 100 | 1007.0 |
| 20260505192913 | 86 | 204 | 11.3 | 21.7 | 0.00 | 0.00 | 0.00 | 100 | 1007.0 |
| 20260505192413 | 86 | 161 | 11.3 | 22.6 | 0.00 | 0.00 | 0.00 | 100 | 1007.0 |
| 20260505191913 | 86 | 203 | 13.0 | 22.6 | 0.00 | 0.00 | 0.00 | 100 | 1007.2 |
| 20260505191413 | 85 | 171 | 13.0 | 22.6 | 0.00 | 0.00 | 0.00 | 100 | 1007.3 |
| 20260505190912 | 85 | 142 | 12.2 | 19.1 | 0.00 | 0.00 | 0.00 | 100 | 1007.2 |
| 20260505190411 | 85 | 208 | 10.4 | 20.0 | 0.00 | 0.00 | 0.00 | 100 | 1007.1 |
| 20260505185911 | 85 | 175 | 11.3 | 21.7 | 0.00 | 0.00 | 0.00 | 100 | 1007.1 |
| 20260505185411 | 85 | 171 | 11.3 | 21.7 | 0.00 | 0.00 | 0.00 | 100 | 1007.0 |
| 20260505184911 | 85 | 130 | 10.4 | 20.0 | 0.00 | 0.00 | 0.00 | 100 | 1007.1 |
| 20260505184411 | 84 | 173 | 10.4 | 20.9 | 0.00 | 0.00 | 0.00 | 100 | 1007.0 |
| 20260505183911 | 83 | 137 | 10.4 | 20.9 | 0.00 | 0.00 | 0.00 | 100 | 1007.1 |
| 20260505183411 | 83 | 141 | 10.4 | 20.9 | 0.00 | 0.00 | 0.00 | 100 | 1007.2 |
| 20260505182411 | 83 | 178 | 11.3 | 21.7 | 0.00 | 0.00 | 0.00 | 100 | 1007.4 |
| 20260505181911 | 84 | 158 | 11.3 | 20.9 | 0.00 | 0.00 | 0.00 | 100 | 1007.3 |
| 20260505181409 | 83 | 167 | 12.2 | 20.9 | 0.00 | 0.00 | 0.00 | 100 | 1007.4 |
| 20260505180909 | 83 | 157 | 13.0 | 20.9 | 0.00 | 0.00 | 0.00 | 100 | 1007.5 |
| 20260505175909 | 83 | 167 | 12.2 | 19.1 | 0.00 | 0.00 | 0.00 | 100 | 1007.6 |
| 20260505175409 | 83 | 163 | 13.9 | 20.0 | 0.00 | 0.00 | 0.00 | 100 | 1007.7 |
| 20260505174910 | 84 | 167 | 12.2 | 20.9 | 0.00 | 0.00 | 0.00 | 100 | 1007.6 |
| 20260505174409 | 84 | 168 | 11.3 | 20.9 | 0.00 | 0.00 | 0.00 | 100 | 1007.7 |
| 20260505173409 | 84 | 157 | 12.2 | 20.0 | 0.00 | 0.00 | 0.00 | 100 | 1007.8 |
| 20260505172908 | 84 | 144 | 12.2 | 20.9 | 0.00 | 0.00 | 0.00 | 100 | 1007.8 |
| 20260505172407 | 84 | 195 | 13.0 | 22.6 | 0.00 | 0.00 | 0.00 | 100 | 1007.9 |
| 20260505171908 | 83 | 175 | 12.2 | 22.6 | 0.00 | 0.00 | 0.00 | 100 | 1007.8 |
| 20260505171407 | 83 | 165 | 11.3 | 20.9 | 0.00 | 0.00 | 0.00 | 100 | 1007.9 |
| 20260505170907 | 83 | 180 | 11.3 | 21.7 | 0.00 | 0.00 | 0.00 | 100 | 1008.0 |
| 20260505170407 | 83 | 147 | 10.4 | 21.7 | 0.00 | 0.00 | 0.00 | 100 | 1008.0 |
| 20260505165907 | 83 | 193 | 9.6 | 18.2 | 0.00 | 0.00 | 0.00 | 100 | 1008.1 |
| 20260505165407 | 83 | 163 | 9.6 | 19.1 | 0.00 | 0.00 | 0.00 | 100 | 1008.1 |
| 20260505164907 | 83 | 147 | 10.4 | 19.1 | 0.00 | 0.00 | 0.00 | 100 | 1008.1 |
| 20260505164407 | 83 | 152 | 9.6 | 16.5 | 0.00 | 0.00 | 0.00 | 100 | 1008.2 |
| 20260505163906 | 83 | 155 | 9.6 | 15.6 | 0.00 | 0.00 | 0.00 | 100 | 1008.3 |
| 20260505163405 | 83 | 170 | 8.7 | 15.6 | 0.00 | 0.00 | 0.00 | 100 | 1008.2 |
| 20260505162905 | 83 | 167 | 9.6 | 16.5 | 0.00 | 0.00 | 0.00 | 100 | 1008.1 |
| 20260505162405 | 83 | 198 | 10.4 | 19.1 | 0.00 | 0.00 | 0.00 | 100 | 1008.1 |
| 20260505161905 | 83 | 157 | 9.6 | 19.1 | 0.00 | 0.00 | 0.00 | 100 | 1008.0 |
| 20260505160905 | 83 | 151 | 10.4 | 19.1 | 0.00 | 0.00 | 0.00 | 100 | 1007.9 |
| 20260505152903 | 81 | 175 | 11.3 | 18.2 | 0.00 | 0.00 | 0.00 | 100 | 1007.7 |
| 20260505152403 | 81 | 192 | 9.6 | 18.2 | 0.00 | 0.00 | 0.00 | 100 | 1007.7 |
| 20260505151904 | 81 | 160 | 9.6 | 16.5 | 0.00 | 0.00 | 0.00 | 100 | 1007.7 |
| 20260505151403 | 81 | 171 | 9.6 | 17.4 | 0.00 | 0.00 | 0.00 | 100 | 1007.6 |
| 20260505150903 | 81 | 167 | 9.6 | 17.4 | 0.00 | 0.00 | 0.00 | 100 | 1007.7 |
| 20260505150403 | 81 | 186 | 10.4 | 19.1 | 0.00 | 0.00 | 0.00 | 100 | 1007.7 |
| 20260505140400 | 80 | 165 | 8.7 | 17.4 | 0.00 | 0.00 | 0.00 | 100 | 1007.5 |
| 20260505124355 | 79 | 167 | 8.7 | 13.0 | 0.00 | 0.00 | 0.00 | 100 | 1007.3 |
| 20260505123855 | 79 | 170 | 8.7 | 15.6 | 0.00 | 0.00 | 0.00 | 100 | 1007.3 |
| 20260505123356 | 79 | 188 | 7.8 | 15.6 | 0.00 | 0.00 | 0.00 | 100 | 1007.3 |
| 20260505122856 | 79 | 178 | 7.0 | 13.0 | 0.00 | 0.00 | 0.00 | 100 | 1007.2 |
| 20260505122355 | 78 | 161 | 7.8 | 13.9 | 0.00 | 0.00 | 0.00 | 100 | 1007.2 |
| 20260505121855 | 78 | 140 | 7.8 | 13.9 | 0.00 | 0.00 | 0.00 | 100 | 1007.2 |
| 20260505121355 | 78 | 163 | 7.8 | 13.0 | 0.00 | 0.00 | 0.00 | 100 | 1007.2 |
| 20260505120856 | 78 | 156 | 7.8 | 13.0 | 0.00 | 0.00 | 0.00 | 100 | 1007.1 |
| 20260505120356 | 78 | 175 | 7.0 | 12.2 | 0.00 | 0.00 | 0.00 | 100 | 1007.1 |
| 20260505115855 | 78 | 157 | 7.0 | 12.2 | 0.00 | 0.00 | 0.00 | 100 | 1007.0 |
| 20260505115355 | 78 | 142 | 6.1 | 12.2 | 0.00 | 0.00 | 0.00 | 100 | 1007.0 |
| 20260505114856 | 78 | 128 | 7.0 | 12.2 | 0.00 | 0.00 | 0.00 | 100 | 1007.0 |
| 20260505113855 | 78 | 179 | 7.0 | 13.0 | 0.00 | 0.00 | 0.00 | 100 | 1007.0 |
| 20260505112853 | 78 | 171 | 7.0 | 13.0 | 0.00 | 0.00 | 0.00 | 100 | 1006.9 |
| 20260505112354 | 78 | 159 | 7.0 | 12.2 | 0.00 | 0.00 | 0.00 | 100 | 1006.9 |
| 20260505111854 | 78 | 159 | 7.0 | 13.0 | 0.00 | 0.00 | 0.00 | 100 | 1006.9 |
| 20260505111354 | 78 | 171 | 7.0 | 13.0 | 0.00 | 0.00 | 0.00 | 100 | 1006.8 |
| 20260505110853 | 78 | 157 | 6.1 | 11.3 | 0.00 | 0.00 | 0.00 | 100 | 1006.8 |
| 20260505110352 | 78 | 155 | 6.1 | 12.2 | 0.00 | 0.00 | 0.00 | 100 | 1006.9 |